Location: Chevoux
(46.3801°N, 4.9476°E)
Time: 12:19:17
(UTC+00:00)

deb Explorer IX - All Passes

Search period start: 13 May 2021 00:00
Search period end: 23 May 2021 00:00
Orbit: 541 x 1098 km, 38.8° (Epoch: 12 May)

Date Brightness Start Highest point End Pass type
(mag) Time Alt. Az. Time Alt. Az. Time Alt. Az.
13 May - 00:22:41 10° WSW 00:27:46 33° SSW 00:32:11 10° SE night (unlit)
13 May - 02:10:40 10° WSW 02:13:38 16° SSW 02:16:24 10° S visible
13 May - 20:25:55 10° SSW 20:31:11 24° SSE 20:35:59 10° ESE visible
13 May - 22:11:44 10° WSW 22:17:37 38° S 22:22:43 10° ESE visible
13 May - 23:58:43 10° WSW 00:04:01 34° SSW 00:08:35 10° SE visible
14 May - 01:46:42 10° WSW 01:49:55 16° SSW 01:52:52 10° S night (unlit)
14 May - 20:01:55 10° SSW 20:07:21 25° SSE 20:12:19 10° ESE visible
14 May - 21:47:44 10° WSW 21:53:47 39° S 21:59:05 10° ESE visible
14 May - 23:34:44 10° WSW 23:40:14 35° SSW 23:45:00 10° SE visible
15 May - 01:22:43 10° WSW 01:26:10 17° SSW 01:29:20 10° S night (unlit)
15 May - 19:37:54 10° SSW 19:43:29 26° SSE 19:48:37 10° ESE visible
15 May - 21:23:45 10° WSW 21:29:58 40° S 21:35:26 10° ESE visible
15 May - 23:10:45 10° WSW 23:16:27 36° SSW 23:21:23 10° SE visible
16 May - 00:58:43 10° WSW 01:02:25 18° SSW 01:05:47 10° SSE night (unlit)
16 May - 19:13:54 10° SSW 19:19:37 26° SSE 19:24:54 10° ESE daylight
16 May - 20:59:44 10° WSW 21:06:07 41° S 21:11:45 10° ESE visible
16 May - 22:46:46 10° WSW 22:52:38 37° SSW 22:57:45 10° SE visible
17 May - 00:34:42 10° WSW 00:38:39 19° SSW 00:42:14 10° SSE visible
17 May - 18:49:54 10° SSW 18:55:43 27° SSE 19:01:10 10° ESE daylight
17 May - 20:35:44 10° WSW 20:42:15 42° S 20:48:03 10° ESE visible
17 May - 22:22:45 10° WSW 22:28:49 38° SSW 22:34:06 10° SE visible
18 May - 00:10:41 10° WSW 00:14:52 19° SSW 00:18:40 10° SSE visible
18 May - 18:25:56 10° SSW 18:31:49 27° SSE 18:37:24 10° ESE daylight
18 May - 20:11:45 10° WSW 20:18:22 42° S 20:24:20 10° ESE visible
18 May - 21:58:45 10° WSW 22:04:58 39° SSW 22:10:27 10° SE visible
18 May - 23:46:39 10° WSW 23:51:04 20° SSW 23:55:04 10° SSE visible
19 May - 16:21:47 10° SE 16:21:54 10° SE 16:22:03 10° SE daylight
19 May - 18:01:58 10° SSW 18:07:54 28° SSE 18:13:36 10° E daylight
19 May - 19:47:46 10° WSW 19:54:28 43° S 20:00:36 10° ESE visible
19 May - 21:34:45 10° WSW 21:41:07 40° SSW 21:46:45 10° SE visible
19 May - 23:22:37 10° WSW 23:27:15 21° SSW 23:31:27 10° SSE visible
20 May - 15:57:41 10° SE 15:58:01 10° SE 15:58:22 10° SE daylight
20 May - 17:38:01 10° SSW 17:43:59 28° SSE 17:49:46 10° E daylight
20 May - 19:23:47 10° WSW 19:30:33 43° S 19:36:50 10° ESE daylight
20 May - 21:10:45 10° WSW 21:17:14 41° SSW 21:23:03 10° SE visible
20 May - 22:58:35 10° WSW 23:03:25 22° SSW 23:07:49 10° SSE visible
21 May - 15:34:02 10° SE 15:34:07 10° SE 15:34:13 10° SE daylight
21 May - 17:14:06 10° SSW 17:20:04 28° SSE 17:25:56 10° E daylight
21 May - 18:59:49 10° WSW 19:06:38 44° S 19:13:03 10° ESE daylight
21 May - 20:46:45 10° WSW 20:53:21 41° SSW 20:59:20 10° ESE visible
21 May - 22:34:33 10° WSW 22:39:35 22° SSW 22:44:10 10° SSE visible
22 May - 16:50:11 10° SSW 16:56:08 28° SSE 17:02:04 10° E daylight
22 May - 18:35:52 10° WSW 18:42:42 44° S 18:49:14 10° ESE daylight
22 May - 20:22:46 10° WSW 20:29:27 42° S 20:35:35 10° ESE visible
22 May - 22:10:31 10° WSW 22:15:43 23° SSW 22:20:30 10° SSE visible
